STARLINK-1015 (44721 NORAD) Tracking and Keplerian Element Data

This shows tracking and keplerian element data for the satellite.

Feedback or suggestion? Click here.




ElementValue
Catalog44721
NameSTARLINK-1015
Epoch Orbit1145
Epoch Day23.25001157
Epoch Year2020
RAAN169.3358
Inclination53.0058
Eccentricity0.0003066
Argument of Perigee54.7589
Mean Anonmoly230.7138
Mean Motion15.7316383
Decay Rate0.00214032
L11 44721U 19074J 20023.25001157 .00214032 00000-0 14927-2 0 9994
L22 44721 53.0058 169.3358 0003066 54.7589 230.7138 15.73163830 11451

Live tracking and technical data element details for STARLINK-1015 (NORAD 44721). STARLINK-1015 can be tracked NOW for your location showing map with azimuth and elevation plus other details from your city location.

Track the satellite on the map from your city or location and see movement details for azimuth, elevation, latitude, longitude, range, height, and movement on the map or in text.







IsCatalogInMostPopularTable: catalog: 44721, numindb: 9
Update: records affected: 1



GetName: 44721 STARLINK-1015

Hit Count: updated at: Fri, 24 Jan 2020 10:26:19 GMT